Time,TemperatureF,DewpointF,PressureIn,WindDirection,WindDirectionDegrees,WindSpeedMPH,WindSpeedGustMPH,Humidity,HourlyPrecipIn,Conditions,Clouds,dailyrainin,SoftwareType,DateUTC
2013-07-16 00:01:00,68.2,63.1,30.34,NNW,337,0.0,0.0,85,0.00,,,0.00,WUHU21636XXSP,2013-07-16 04:01:00,
2013-07-16 00:06:00,67.8,63.3,30.34,NNW,337,0.0,0.0,86,0.00,,,0.00,WUHU21636XXSP,2013-07-16 04:06:00,
2013-07-16 00:11:00,67.6,63.1,30.34,NNW,337,0.0,0.0,85,0.00,,,0.00,WUHU21636XXSP,2013-07-16 04:11:00,
2013-07-16 00:16:00,67.6,63.1,30.34,NNW,337,0.0,0.0,86,0.00,,,0.00,WUHU21636XXSP,2013-07-16 04:16:00,
2013-07-16 00:21:00,67.3,62.8,30.34,NNW,337,0.0,0.0,86,0.00,,,0.00,WUHU21636XXSP,2013-07-16 04:21:00,
2013-07-16 00:26:00,67.3,62.8,30.34,NNW,337,0.0,0.0,86,0.00,,,0.00,WUHU21636XXSP,2013-07-16 04:26:00,
2013-07-16 00:31:00,67.3,62.8,30.34,NNW,337,0.0,0.0,86,0.00,,,0.00,WUHU21636XXSP,2013-07-16 04:31:00,
2013-07-16 00:36:00,67.1,62.6,30.33,NNW,337,0.0,0.0,87,0.00,,,0.00,WUHU21636XXSP,2013-07-16 04:36:00,
2013-07-16 00:41:00,66.9,62.8,30.33,NNW,337,0.0,0.0,87,0.00,,,0.00,WUHU21636XXSP,2013-07-16 04:41:00,
2013-07-16 00:46:00,66.9,62.6,30.33,NNW,337,0.0,0.0,87,0.00,,,0.00,WUHU21636XXSP,2013-07-16 04:46:00,
2013-07-16 00:51:00,66.6,62.4,30.33,NNW,337,0.0,0.0,87,0.00,,,0.00,WUHU21636XXSP,2013-07-16 04:51:00,
2013-07-16 00:56:00,66.4,62.2,30.33,NNW,337,0.0,0.0,87,0.00,,,0.00,WUHU21636XXSP,2013-07-16 04:56:00,
2013-07-16 01:01:00,66.4,62.2,30.33,NNW,337,0.0,0.0,87,0.00,,,0.00,WUHU21636XXSP,2013-07-16 05:01:00,
2013-07-16 01:06:00,66.0,61.9,30.33,NNW,337,0.0,0.0,87,0.00,,,0.00,WUHU21636XXSP,2013-07-16 05:06:00,
2013-07-16 01:11:00,66.0,61.9,30.32,NNW,337,0.0,0.0,87,0.00,,,0.00,WUHU21636XXSP,2013-07-16 05:11:00,
2013-07-16 01:16:00,65.8,61.7,30.33,NNW,337,0.0,0.0,87,0.00,,,0.00,WUHU21636XXSP,2013-07-16 05:16:00,
2013-07-16 01:21:00,65.8,61.7,30.33,NNW,337,0.0,0.0,87,0.00,,,0.00,WUHU21636XXSP,2013-07-16 05:21:00,
2013-07-16 01:26:00,65.8,61.7,30.33,NNW,337,0.0,0.0,87,0.00,,,0.00,WUHU21636XXSP,2013-07-16 05:26:00,
2013-07-16 01:31:00,65.8,61.7,30.33,NNW,337,0.0,0.0,87,0.00,,,0.00,WUHU21636XXSP,2013-07-16 05:31:00,
2013-07-16 01:36:00,66.0,62.2,30.33,NNW,337,0.0,0.0,88,0.00,,,0.00,WUHU21636XXSP,2013-07-16 05:36:00,
2013-07-16 01:41:00,65.8,62.1,30.33,NNW,337,0.0,0.0,88,0.00,,,0.00,WUHU21636XXSP,2013-07-16 05:41:00,
2013-07-16 01:46:00,65.7,61.9,30.33,NNW,337,0.0,0.0,88,0.00,,,0.00,WUHU21636XXSP,2013-07-16 05:46:00,
2013-07-16 01:51:00,65.3,61.5,30.33,NNW,337,0.0,0.0,88,0.00,,,0.00,WUHU21636XXSP,2013-07-16 05:51:00,
2013-07-16 01:56:00,65.1,61.3,30.33,NNW,337,0.0,0.0,88,0.00,,,0.00,WUHU21636XXSP,2013-07-16 05:56:00,
2013-07-16 02:01:00,64.9,61.2,30.33,NNW,337,0.0,0.0,88,0.00,,,0.00,WUHU21636XXSP,2013-07-16 06:01:00,
2013-07-16 02:06:00,65.1,61.3,30.33,NNW,337,0.0,0.0,88,0.00,,,0.00,WUHU21636XXSP,2013-07-16 06:06:00,
2013-07-16 02:11:00,64.9,61.2,30.32,NNW,337,0.0,0.0,88,0.00,,,0.00,WUHU21636XXSP,2013-07-16 06:11:00,
2013-07-16 02:16:00,64.9,61.2,30.32,NNW,337,0.0,0.0,88,0.00,,,0.00,WUHU21636XXSP,2013-07-16 06:16:00,
2013-07-16 02:21:00,64.8,61.2,30.33,NNW,337,0.0,0.0,88,0.00,,,0.00,WUHU21636XXSP,2013-07-16 06:21:00,
2013-07-16 02:26:00,64.6,61.0,30.33,NNW,337,0.0,0.0,88,0.00,,,0.00,WUHU21636XXSP,2013-07-16 06:26:00,
2013-07-16 02:31:00,64.6,61.0,30.33,NNW,337,0.0,0.0,88,0.00,,,0.00,WUHU21636XXSP,2013-07-16 06:31:00,
2013-07-16 02:36:00,64.4,60.8,30.32,NNW,337,0.0,0.0,88,0.00,,,0.00,WUHU21636XXSP,2013-07-16 06:36:00,
2013-07-16 02:41:00,64.2,60.6,30.32,NNW,337,0.0,0.0,88,0.00,,,0.00,WUHU21636XXSP,2013-07-16 06:41:00,
2013-07-16 02:46:00,64.0,60.4,30.33,NNW,337,0.0,0.0,88,0.00,,,0.00,WUHU21636XXSP,2013-07-16 06:46:00,
2013-07-16 02:51:00,63.9,60.3,30.33,NNW,337,0.0,0.0,88,0.00,,,0.00,WUHU21636XXSP,2013-07-16 06:51:00,
2013-07-16 02:56:00,63.9,60.3,30.33,NNW,337,0.0,0.0,88,0.00,,,0.00,WUHU21636XXSP,2013-07-16 06:56:00,
2013-07-16 03:01:00,63.7,60.1,30.33,NNW,337,0.0,0.0,88,0.00,,,0.00,WUHU21636XXSP,2013-07-16 07:01:00,
2013-07-16 03:06:00,63.7,60.1,30.33,NNW,337,0.0,0.0,88,0.00,,,0.00,WUHU21636XXSP,2013-07-16 07:06:00,
2013-07-16 03:11:00,63.5,59.9,30.33,NNW,337,0.0,0.0,88,0.00,,,0.00,WUHU21636XXSP,2013-07-16 07:11:00,
2013-07-16 03:16:00,63.5,59.9,30.33,NNW,337,0.0,0.0,88,0.00,,,0.00,WUHU21636XXSP,2013-07-16 07:16:00,
2013-07-16 03:21:00,63.5,59.9,30.33,NNW,337,0.0,0.0,88,0.00,,,0.00,WUHU21636XXSP,2013-07-16 07:21:00,
2013-07-16 03:26:00,63.7,60.1,30.33,NNW,337,0.0,0.0,88,0.00,,,0.00,WUHU21636XXSP,2013-07-16 07:26:00,
2013-07-16 03:31:00,63.7,60.1,30.32,NNW,337,0.0,0.0,89,0.00,,,0.00,WUHU21636XXSP,2013-07-16 07:31:00,
2013-07-16 03:36:00,63.9,60.6,30.33,NNW,337,0.0,0.0,89,0.00,,,0.00,WUHU21636XXSP,2013-07-16 07:36:00,
2013-07-16 03:41:00,63.7,60.4,30.33,NNW,337,0.0,0.0,89,0.00,,,0.00,WUHU21636XXSP,2013-07-16 07:41:00,
2013-07-16 03:46:00,63.7,60.4,30.33,NNW,337,0.0,0.0,89,0.00,,,0.00,WUHU21636XXSP,2013-07-16 07:46:00,
2013-07-16 03:51:00,63.5,60.3,30.33,NNW,337,0.0,0.0,89,0.00,,,0.00,WUHU21636XXSP,2013-07-16 07:51:00,
2013-07-16 03:56:00,63.7,60.4,30.33,NNW,337,0.0,0.0,89,0.00,,,0.00,WUHU21636XXSP,2013-07-16 07:56:00,
2013-07-16 04:01:00,63.7,60.4,30.33,NNW,337,0.0,0.0,89,0.00,,,0.00,WUHU21636XXSP,2013-07-16 08:01:00,
2013-07-16 04:06:00,63.7,60.4,30.33,NNW,337,0.0,0.0,89,0.00,,,0.00,WUHU21636XXSP,2013-07-16 08:06:00,
2013-07-16 04:11:00,63.7,60.4,30.33,NNW,337,0.0,0.0,89,0.00,,,0.00,WUHU21636XXSP,2013-07-16 08:11:00,
2013-07-16 04:16:00,63.7,60.4,30.33,NNW,337,0.0,0.0,89,0.00,,,0.00,WUHU21636XXSP,2013-07-16 08:16:00,
2013-07-16 04:21:00,63.7,60.4,30.33,NNW,337,0.0,0.0,89,0.00,,,0.00,WUHU21636XXSP,2013-07-16 08:21:00,
2013-07-16 04:26:00,63.7,60.4,30.33,NNW,337,0.0,0.0,89,0.00,,,0.00,WUHU21636XXSP,2013-07-16 08:26:00,
2013-07-16 04:31:00,63.7,60.4,30.33,NNW,337,0.0,0.0,89,0.00,,,0.00,WUHU21636XXSP,2013-07-16 08:31:00,
2013-07-16 04:36:00,64.0,60.8,30.33,NNW,337,0.0,0.0,89,0.00,,,0.00,WUHU21636XXSP,2013-07-16 08:36:00,
2013-07-16 04:41:00,64.0,60.8,30.33,NNW,337,0.0,0.0,89,0.00,,,0.00,WUHU21636XXSP,2013-07-16 08:41:00,
2013-07-16 04:46:00,64.2,61.0,30.33,NNW,337,0.0,0.0,89,0.00,,,0.00,WUHU21636XXSP,2013-07-16 08:46:00,
2013-07-16 04:51:00,64.6,61.3,30.33,NNW,337,0.0,0.0,89,0.00,,,0.00,WUHU21636XXSP,2013-07-16 08:51:00,
2013-07-16 04:56:00,64.6,61.3,30.33,NNW,337,0.0,0.0,89,0.00,,,0.00,WUHU21636XXSP,2013-07-16 08:56:00,
2013-07-16 05:01:00,64.4,61.2,30.33,NNW,337,0.0,0.0,89,0.00,,,0.00,WUHU21636XXSP,2013-07-16 09:01:00,
2013-07-16 05:06:00,64.4,61.2,30.33,NNW,337,0.0,0.0,89,0.00,,,0.00,WUHU21636XXSP,2013-07-16 09:06:00,
2013-07-16 05:11:00,64.4,61.2,30.33,NNW,337,0.0,0.0,89,0.00,,,0.00,WUHU21636XXSP,2013-07-16 09:11:00,
2013-07-16 05:16:00,64.6,61.3,30.34,NNW,337,0.0,0.0,89,0.00,,,0.00,WUHU21636XXSP,2013-07-16 09:16:00,
2013-07-16 05:21:00,64.6,61.3,30.34,NNW,337,0.0,0.0,89,0.00,,,0.00,WUHU21636XXSP,2013-07-16 09:21:00,
2013-07-16 05:26:00,64.4,61.3,30.33,NNW,337,0.0,0.0,89,0.00,,,0.00,WUHU21636XXSP,2013-07-16 09:26:00,
2013-07-16 05:31:00,64.2,61.0,30.34,NNW,337,0.0,0.0,89,0.00,,,0.00,WUHU21636XXSP,2013-07-16 09:31:00,
2013-07-16 05:36:00,64.2,61.0,30.34,NNW,337,0.0,0.0,89,0.00,,,0.00,WUHU21636XXSP,2013-07-16 09:36:00,
2013-07-16 05:41:00,64.0,60.8,30.34,NNW,337,0.0,0.0,89,0.00,,,0.00,WUHU21636XXSP,2013-07-16 09:41:00,
2013-07-16 05:46:00,64.0,60.8,30.34,NNW,337,0.0,0.0,89,0.00,,,0.00,WUHU21636XXSP,2013-07-16 09:46:00,
2013-07-16 05:51:00,63.9,60.6,30.34,NNW,337,0.0,0.0,89,0.00,,,0.00,WUHU21636XXSP,2013-07-16 09:51:00,
2013-07-16 05:56:00,63.7,60.4,30.34,NNW,337,0.0,0.0,89,0.00,,,0.00,WUHU21636XXSP,2013-07-16 09:56:00,
2013-07-16 06:01:00,63.7,60.4,30.34,NNW,337,0.0,0.0,89,0.00,,,0.00,WUHU21636XXSP,2013-07-16 10:01:00,
2013-07-16 06:06:00,63.5,60.3,30.34,NNW,337,0.0,0.0,89,0.00,,,0.00,WUHU21636XXSP,2013-07-16 10:06:00,
2013-07-16 06:11:00,63.7,60.4,30.34,NNW,337,0.0,0.0,89,0.00,,,0.00,WUHU21636XXSP,2013-07-16 10:11:00,
2013-07-16 06:16:00,63.7,60.4,30.34,NNW,337,0.0,0.0,89,0.00,,,0.00,WUHU21636XXSP,2013-07-16 10:16:00,
2013-07-16 06:21:00,63.7,60.4,30.34,NNW,337,0.0,0.0,89,0.00,,,0.00,WUHU21636XXSP,2013-07-16 10:21:00,
2013-07-16 06:26:00,63.7,60.4,30.34,NNW,337,0.0,0.0,89,0.00,,,0.00,WUHU21636XXSP,2013-07-16 10:26:00,
2013-07-16 06:31:00,63.5,60.3,30.34,NNW,337,0.0,0.0,89,0.00,,,0.00,WUHU21636XXSP,2013-07-16 10:31:00,
2013-07-16 06:36:00,63.5,60.3,30.34,NNW,337,0.0,0.0,89,0.00,,,0.00,WUHU21636XXSP,2013-07-16 10:36:00,
2013-07-16 06:41:00,63.7,60.4,30.34,NNW,337,0.0,0.0,89,0.00,,,0.00,WUHU21636XXSP,2013-07-16 10:41:00,
2013-07-16 06:46:00,64.0,60.8,30.34,NNW,337,0.0,0.0,89,0.00,,,0.00,WUHU21636XXSP,2013-07-16 10:46:00,
2013-07-16 06:51:00,64.0,60.8,30.34,NNW,337,0.0,0.0,89,0.00,,,0.00,WUHU21636XXSP,2013-07-16 10:51:00,
2013-07-16 06:56:00,64.2,61.0,30.34,NNW,337,0.0,0.0,89,0.00,,,0.00,WUHU21636XXSP,2013-07-16 10:56:00,
2013-07-16 07:01:00,64.6,61.3,30.34,NNW,337,0.0,0.0,89,0.00,,,0.00,WUHU21636XXSP,2013-07-16 11:01:00,
2013-07-16 07:06:00,64.9,61.5,30.34,North,0,0.0,0.0,89,0.00,,,0.00,WUHU21636XXSP,2013-07-16 11:06:00,
2013-07-16 07:11:00,65.1,61.7,30.34,North,0,0.0,0.0,89,0.00,,,0.00,WUHU21636XXSP,2013-07-16 11:11:00,
2013-07-16 07:16:00,65.5,62.1,30.34,North,0,0.0,0.0,89,0.00,,,0.00,WUHU21636XXSP,2013-07-16 11:16:00,
2013-07-16 07:21:00,65.8,62.4,30.34,North,0,0.0,0.0,89,0.00,,,0.00,WUHU21636XXSP,2013-07-16 11:21:00,
2013-07-16 07:26:00,66.0,62.6,30.34,North,0,0.0,0.0,89,0.00,,,0.00,WUHU21636XXSP,2013-07-16 11:26:00,
2013-07-16 07:31:00,66.4,63.0,30.34,North,0,0.0,0.0,89,0.00,,,0.00,WUHU21636XXSP,2013-07-16 11:31:00,
2013-07-16 07:36:00,66.6,63.1,30.34,North,0,0.0,0.0,89,0.00,,,0.00,WUHU21636XXSP,2013-07-16 11:36:00,
2013-07-16 07:41:00,66.9,63.5,30.34,North,0,0.0,0.0,89,0.00,,,0.00,WUHU21636XXSP,2013-07-16 11:41:00,
2013-07-16 07:46:00,67.3,63.9,30.35,North,0,0.0,0.0,89,0.00,,,0.00,WUHU21636XXSP,2013-07-16 11:46:00,
2013-07-16 07:51:00,67.6,64.2,30.34,North,0,0.0,0.0,89,0.00,,,0.00,WUHU21636XXSP,2013-07-16 11:51:00,
2013-07-16 07:56:00,68.0,64.6,30.34,North,0,0.0,0.0,89,0.00,,,0.00,WUHU21636XXSP,2013-07-16 11:56:00,
2013-07-16 08:01:00,68.4,64.9,30.34,North,0,0.0,0.0,89,0.00,,,0.00,WUHU21636XXSP,2013-07-16 12:01:00,
2013-07-16 08:06:00,68.9,65.5,30.34,North,0,0.0,0.0,89,0.00,,,0.00,WUHU21636XXSP,2013-07-16 12:06:00,
2013-07-16 08:11:00,69.4,66.0,30.35,North,0,0.0,0.0,89,0.00,,,0.00,WUHU21636XXSP,2013-07-16 12:11:00,
2013-07-16 08:16:00,69.8,66.4,30.35,North,0,0.0,0.0,89,0.00,,,0.00,WUHU21636XXSP,2013-07-16 12:16:00,
2013-07-16 08:21:00,70.7,67.3,30.35,North,0,0.0,0.0,89,0.00,,,0.00,WUHU21636XXSP,2013-07-16 12:21:00,
2013-07-16 08:26:00,71.4,68.0,30.35,North,0,0.0,0.0,89,0.00,,,0.00,WUHU21636XXSP,2013-07-16 12:26:00,
2013-07-16 08:31:00,72.1,68.7,30.35,WSW,247,0.0,0.0,89,0.00,,,0.00,WUHU21636XXSP,2013-07-16 12:31:00,
2013-07-16 08:36:00,73.0,69.6,30.35,WSW,247,0.0,3.1,89,0.00,,,0.00,WUHU21636XXSP,2013-07-16 12:36:00,
2013-07-16 08:41:00,73.9,70.5,30.35,WSW,247,0.0,3.1,89,0.00,,,0.00,WUHU21636XXSP,2013-07-16 12:41:00,
2013-07-16 08:46:00,74.7,70.9,30.35,SSW,202,0.0,0.6,88,0.00,,,0.00,WUHU21636XXSP,2013-07-16 12:46:00,
2013-07-16 08:51:00,75.4,71.8,30.35,SSW,202,0.0,0.6,87,0.00,,,0.00,WUHU21636XXSP,2013-07-16 12:51:00,
2013-07-16 08:56:00,76.6,71.8,30.35,SSW,202,0.0,0.4,85,0.00,,,0.00,WUHU21636XXSP,2013-07-16 12:56:00,
2013-07-16 09:01:00,77.5,72.0,30.35,SSW,202,4.4,4.4,83,0.00,,,0.00,WUHU21636XXSP,2013-07-16 13:01:00,
2013-07-16 09:06:00,78.6,71.4,30.35,SSW,202,3.1,4.4,79,0.00,,,0.00,WUHU21636XXSP,2013-07-16 13:06:00,
2013-07-16 09:11:00,79.0,71.4,30.35,South,180,2.6,3.1,78,0.00,,,0.00,WUHU21636XXSP,2013-07-16 13:11:00,
2013-07-16 09:16:00,79.7,71.4,30.35,SSW,202,0.0,3.1,76,0.00,,,0.00,WUHU21636XXSP,2013-07-16 13:16:00,
2013-07-16 09:21:00,80.2,71.6,30.35,South,180,2.0,2.6,75,0.00,,,0.00,WUHU21636XXSP,2013-07-16 13:21:00,
2013-07-16 09:26:00,80.8,72.0,30.35,SSW,202,0.0,2.6,75,0.00,,,0.00,WUHU21636XXSP,2013-07-16 13:26:00,
2013-07-16 09:31:00,81.3,71.8,30.35,South,180,0.0,3.5,73,0.00,,,0.00,WUHU21636XXSP,2013-07-16 13:31:00,
2013-07-16 09:36:00,82.0,72.0,30.35,South,180,0.0,3.5,72,0.00,,,0.00,WUHU21636XXSP,2013-07-16 13:36:00,
2013-07-16 09:41:00,82.4,71.6,30.35,South,180,0.0,0.0,70,0.00,,,0.00,WUHU21636XXSP,2013-07-16 13:41:00,
2013-07-16 09:46:00,82.8,72.3,30.35,South,180,0.0,0.0,71,0.00,,,0.00,WUHU21636XXSP,2013-07-16 13:46:00,
2013-07-16 09:51:00,83.5,72.1,30.35,South,180,0.0,0.0,69,0.00,,,0.00,WUHU21636XXSP,2013-07-16 13:51:00,
2013-07-16 09:56:00,84.2,73.8,30.35,SSW,202,0.0,0.0,71,0.00,,,0.00,WUHU21636XXSP,2013-07-16 13:56:00,
2013-07-16 10:01:00,84.9,73.6,30.35,SSW,202,0.0,0.6,69,0.00,,,0.00,WUHU21636XXSP,2013-07-16 14:01:00,
2013-07-16 10:06:00,85.6,72.5,30.35,WSW,247,0.0,1.5,65,0.00,,,0.00,WUHU21636XXSP,2013-07-16 14:06:00,
2013-07-16 10:11:00,86.0,72.9,30.34,WSW,247,0.0,1.5,65,0.00,,,0.00,WUHU21636XXSP,2013-07-16 14:11:00,
2013-07-16 10:16:00,86.4,73.0,30.34,South,180,0.0,31.9,65,0.00,,,0.00,WUHU21636XXSP,2013-07-16 14:16:00,
2013-07-16 10:21:00,86.7,72.5,30.34,SW,225,0.0,31.9,63,0.00,,,0.00,WUHU21636XXSP,2013-07-16 14:21:00,
2013-07-16 10:26:00,87.4,72.3,30.34,West,270,0.0,3.3,61,0.00,,,0.00,WUHU21636XXSP,2013-07-16 14:26:00,
2013-07-16 10:31:00,88.0,73.2,30.34,WSW,247,0.0,3.3,62,0.00,,,0.00,WUHU21636XXSP,2013-07-16 14:31:00,
2013-07-16 10:36:00,88.7,73.0,30.34,SSW,202,0.0,2.6,60,0.00,,,0.00,WUHU21636XXSP,2013-07-16 14:36:00,
2013-07-16 10:41:00,89.1,73.8,30.34,SSW,202,0.0,5.1,61,0.00,,,0.00,WUHU21636XXSP,2013-07-16 14:41:00,
2013-07-16 10:46:00,89.2,73.9,30.34,SW,225,0.0,5.1,59,0.00,,,0.00,WUHU21636XXSP,2013-07-16 14:46:00,
2013-07-16 10:51:00,88.3,72.5,30.34,SSE,157,6.4,6.4,61,0.00,,,0.00,WUHU21636XXSP,2013-07-16 14:51:00,
2013-07-16 10:56:00,88.0,72.3,30.34,SSE,157,1.7,7.1,60,0.00,,,0.00,WUHU21636XXSP,2013-07-16 14:56:00,
2013-07-16 11:01:00,88.0,72.2,30.34,SSW,202,4.6,7.1,59,0.00,,,0.00,WUHU21636XXSP,2013-07-16 15:01:00,
2013-07-16 11:06:00,87.4,70.9,30.34,WSW,247,2.2,4.6,58,0.00,,,0.00,WUHU21636XXSP,2013-07-16 15:06:00,
2013-07-16 11:11:00,87.1,70.5,30.34,South,180,0.8,4.6,58,0.00,,,0.00,WUHU21636XXSP,2013-07-16 15:11:00,
2013-07-16 11:16:00,87.1,71.1,30.34,SSW,202,4.4,4.4,59,0.00,,,0.00,WUHU21636XXSP,2013-07-16 15:16:00,
2013-07-16 11:21:00,87.6,72.5,30.34,WSW,247,0.0,4.4,61,0.00,,,0.00,WUHU21636XXSP,2013-07-16 15:21:00,
2013-07-16 11:26:00,88.3,73.2,30.34,WNW,292,1.7,4.4,61,0.00,,,0.00,WUHU21636XXSP,2013-07-16 15:26:00,
2013-07-16 11:31:00,89.2,72.5,30.34,WNW,292,0.4,5.1,58,0.00,,,0.00,WUHU21636XXSP,2013-07-16 15:31:00,
2013-07-16 11:36:00,89.4,72.1,30.34,SSE,157,0.8,5.1,56,0.00,,,0.00,WUHU21636XXSP,2013-07-16 15:36:00,
2013-07-16 11:41:00,89.8,71.2,30.34,NW,315,4.0,4.0,55,0.00,,,0.00,WUHU21636XXSP,2013-07-16 15:41:00,
2013-07-16 11:46:00,90.1,72.1,30.34,West,270,0.4,4.9,56,0.00,,,0.00,WUHU21636XXSP,2013-07-16 15:46:00,
2013-07-16 11:51:00,90.3,71.2,30.34,SSW,202,1.3,4.9,54,0.00,,,0.00,WUHU21636XXSP,2013-07-16 15:51:00,
2013-07-16 11:56:00,90.3,71.2,30.33,WNW,292,1.7,6.4,54,0.00,,,0.00,WUHU21636XXSP,2013-07-16 15:56:00,
2013-07-16 12:01:00,90.7,70.5,30.33,WSW,247,2.4,6.4,52,0.00,,,0.00,WUHU21636XXSP,2013-07-16 16:01:00,
2013-07-16 12:06:00,91.2,70.5,30.33,West,270,0.0,6.2,51,0.00,,,0.00,WUHU21636XXSP,2013-07-16 16:06:00,
2013-07-16 12:11:00,90.7,71.6,30.34,SSW,202,0.0,3.8,54,0.00,,,0.00,WUHU21636XXSP,2013-07-16 16:11:00,
2013-07-16 12:16:00,90.1,71.1,30.34,West,270,4.0,6.4,54,0.00,,,0.00,WUHU21636XXSP,2013-07-16 16:16:00,
2013-07-16 12:21:00,89.4,71.2,30.33,South,180,3.5,7.1,54,0.00,,,0.00,WUHU21636XXSP,2013-07-16 16:21:00,
2013-07-16 12:26:00,90.1,71.6,30.33,South,180,4.2,7.1,55,0.00,,,0.00,WUHU21636XXSP,2013-07-16 16:26:00,
2013-07-16 12:31:00,90.3,70.7,30.33,SW,225,0.8,4.2,53,0.00,,,0.00,WUHU21636XXSP,2013-07-16 16:31:00,
2013-07-16 12:36:00,91.0,70.3,30.33,WSW,247,0.6,4.2,51,0.00,,,0.00,WUHU21636XXSP,2013-07-16 16:36:00,
2013-07-16 12:41:00,91.6,71.2,30.33,West,270,1.7,8.7,51,0.00,,,0.00,WUHU21636XXSP,2013-07-16 16:41:00,
2013-07-16 12:46:00,91.9,71.6,30.32,West,270,0.0,8.7,52,0.00,,,0.00,WUHU21636XXSP,2013-07-16 16:46:00,
2013-07-16 12:51:00,91.9,69.3,30.32,NNW,337,5.3,5.3,48,0.00,,,0.00,WUHU21636XXSP,2013-07-16 16:51:00,
2013-07-16 12:56:00,91.6,71.2,30.32,WNW,292,5.1,5.3,52,0.00,,,0.00,WUHU21636XXSP,2013-07-16 16:56:00,
2013-07-16 13:01:00,91.0,71.4,30.32,NW,315,9.3,11.8,53,0.00,,,0.00,WUHU21636XXSP,2013-07-16 17:01:00,
2013-07-16 13:06:00,90.7,71.6,30.32,WSW,247,4.6,11.8,53,0.00,,,0.00,WUHU21636XXSP,2013-07-16 17:06:00,
2013-07-16 13:11:00,90.7,72.7,30.32,WNW,292,2.2,11.8,55,0.00,,,0.00,WUHU21636XXSP,2013-07-16 17:11:00,
2013-07-16 13:16:00,91.2,71.1,30.32,WNW,292,4.0,11.8,52,0.00,,,0.00,WUHU21636XXSP,2013-07-16 17:16:00,
2013-07-16 13:21:00,90.9,70.7,30.32,WSW,247,0.0,8.5,52,0.00,,,0.00,WUHU21636XXSP,2013-07-16 17:21:00,
2013-07-16 13:26:00,91.8,71.3,30.32,SW,225,5.8,6.7,51,0.00,,,0.00,WUHU21636XXSP,2013-07-16 17:26:00,
2013-07-16 13:31:00,91.6,70.7,30.32,South,180,1.3,6.7,51,0.00,,,0.00,WUHU21636XXSP,2013-07-16 17:31:00,
2013-07-16 13:36:00,91.9,71.1,30.32,WSW,247,7.1,10.2,52,0.00,,,0.00,WUHU21636XXSP,2013-07-16 17:36:00,
2013-07-16 13:41:00,91.8,72.1,30.32,West,270,3.1,32.2,51,0.00,,,0.00,WUHU21636XXSP,2013-07-16 17:41:00,
2013-07-16 13:46:00,92.5,73.2,30.31,WNW,292,0.8,32.2,54,0.00,,,0.00,WUHU21636XXSP,2013-07-16 17:46:00,
2013-07-16 13:51:00,92.5,73.2,30.31,NW,315,1.7,7.3,53,0.00,,,0.00,WUHU21636XXSP,2013-07-16 17:51:00,
2013-07-16 13:56:00,93.0,71.6,30.31,West,270,0.0,7.3,50,0.00,,,0.00,WUHU21636XXSP,2013-07-16 17:56:00,
2013-07-16 14:01:00,92.7,72.3,30.31,WSW,247,4.0,8.9,51,0.00,,,0.00,WUHU21636XXSP,2013-07-16 18:01:00,
2013-07-16 14:06:00,92.3,72.0,30.31,NNW,337,7.3,17.8,52,0.00,,,0.00,WUHU21636XXSP,2013-07-16 18:06:00,
2013-07-16 14:11:00,92.1,72.9,30.31,NW,315,3.8,17.8,54,0.00,,,0.00,WUHU21636XXSP,2013-07-16 18:11:00,
2013-07-16 14:16:00,92.8,73.0,30.31,NW,315,1.3,13.1,53,0.00,,,0.00,WUHU21636XXSP,2013-07-16 18:16:00,
2013-07-16 14:21:00,93.4,72.0,30.31,SSW,202,3.3,10.0,51,0.00,,,0.00,WUHU21636XXSP,2013-07-16 18:21:00,
2013-07-16 14:26:00,92.8,72.0,30.31,WNW,292,7.6,11.1,51,0.00,,,0.00,WUHU21636XXSP,2013-07-16 18:26:00,
2013-07-16 14:31:00,91.9,72.1,30.31,West,270,6.0,14.3,53,0.00,,,0.00,WUHU21636XXSP,2013-07-16 18:31:00,
2013-07-16 14:36:00,91.9,71.6,30.31,NW,315,4.9,15.2,54,0.00,,,0.00,WUHU21636XXSP,2013-07-16 18:36:00,
2013-07-16 14:41:00,92.5,72.1,30.31,West,270,1.3,17.4,52,0.00,,,0.00,WUHU21636XXSP,2013-07-16 18:41:00,
2013-07-16 14:46:00,91.6,72.3,30.31,West,270,5.3,17.4,54,0.00,,,0.00,WUHU21636XXSP,2013-07-16 18:46:00,
2013-07-16 14:51:00,92.1,71.8,30.31,NW,315,4.2,15.8,52,0.00,,,0.00,WUHU21636XXSP,2013-07-16 18:51:00,
2013-07-16 14:56:00,93.0,72.7,30.31,WSW,247,4.2,9.8,52,0.00,,,0.00,WUHU21636XXSP,2013-07-16 18:56:00,
2013-07-16 15:01:00,94.3,72.3,30.31,SSW,202,5.1,9.8,49,0.00,,,0.00,WUHU21636XXSP,2013-07-16 19:01:00,
2013-07-16 15:06:00,94.3,73.4,30.31,WNW,292,3.3,8.2,51,0.00,,,0.00,WUHU21636XXSP,2013-07-16 19:06:00,
2013-07-16 15:11:00,93.7,73.4,30.30,WNW,292,2.9,9.1,52,0.00,,,0.00,WUHU21636XXSP,2013-07-16 19:11:00,
2013-07-16 15:16:00,93.9,73.0,30.30,West,270,1.7,9.1,51,0.00,,,0.00,WUHU21636XXSP,2013-07-16 19:16:00,
2013-07-16 15:21:00,94.1,73.2,30.30,WNW,292,3.5,8.9,51,0.00,,,0.00,WUHU21636XXSP,2013-07-16 19:21:00,
2013-07-16 15:26:00,94.1,73.2,30.30,NNW,337,0.0,5.3,51,0.00,,,0.00,WUHU21636XXSP,2013-07-16 19:26:00,
2013-07-16 15:31:00,93.9,73.0,30.30,SW,225,5.8,5.8,51,0.00,,,0.00,WUHU21636XXSP,2013-07-16 19:31:00,
2013-07-16 15:36:00,94.1,73.7,30.30,South,180,0.0,5.8,51,0.00,,,0.00,WUHU21636XXSP,2013-07-16 19:36:00,
2013-07-16 15:41:00,93.9,73.6,30.29,SSW,202,0.0,7.3,52,0.00,,,0.00,WUHU21636XXSP,2013-07-16 19:41:00,
2013-07-16 15:46:00,93.9,73.0,30.29,SW,225,0.0,7.3,51,0.00,,,0.00,WUHU21636XXSP,2013-07-16 19:46:00,
2013-07-16 15:51:00,93.9,73.0,30.29,WSW,247,0.6,7.8,53,0.00,,,0.00,WUHU21636XXSP,2013-07-16 19:51:00,
2013-07-16 15:56:00,94.8,73.9,30.29,SSW,202,0.8,7.8,51,0.00,,,0.00,WUHU21636XXSP,2013-07-16 19:56:00,
2013-07-16 16:01:00,95.0,74.1,30.29,West,270,2.0,2.0,51,0.00,,,0.00,WUHU21636XXSP,2013-07-16 20:01:00,
2013-07-16 16:06:00,95.2,74.7,30.29,WSW,247,0.0,2.4,51,0.00,,,0.00,WUHU21636XXSP,2013-07-16 20:06:00,
2013-07-16 16:11:00,94.8,73.9,30.29,WSW,247,0.4,2.4,51,0.00,,,0.00,WUHU21636XXSP,2013-07-16 20:11:00,
2013-07-16 16:16:00,94.8,73.9,30.28,West,270,0.0,2.2,50,0.00,,,0.00,WUHU21636XXSP,2013-07-16 20:16:00,
2013-07-16 16:21:00,94.8,75.0,30.28,WSW,247,5.8,12.5,52,0.00,,,0.00,WUHU21636XXSP,2013-07-16 20:21:00,
2013-07-16 16:26:00,94.5,73.6,30.28,WSW,247,5.1,12.5,51,0.00,,,0.00,WUHU21636XXSP,2013-07-16 20:26:00,
2013-07-16 16:31:00,94.1,73.8,30.28,WNW,292,4.2,6.7,52,0.00,,,0.00,WUHU21636XXSP,2013-07-16 20:31:00,
2013-07-16 16:36:00,94.6,73.9,30.28,West,270,2.2,5.5,51,0.00,,,0.00,WUHU21636XXSP,2013-07-16 20:36:00,
2013-07-16 16:41:00,94.1,74.3,30.28,NW,315,0.0,5.5,53,0.00,,,0.00,WUHU21636XXSP,2013-07-16 20:41:00,
2013-07-16 16:46:00,94.3,73.9,30.28,SSE,157,2.6,2.6,52,0.00,,,0.00,WUHU21636XXSP,2013-07-16 20:46:00,
2013-07-16 16:51:00,94.6,74.8,30.28,SW,225,3.1,3.1,52,0.00,,,0.00,WUHU21636XXSP,2013-07-16 20:51:00,
2013-07-16 16:56:00,94.8,73.9,30.28,West,270,1.3,3.1,51,0.00,,,0.00,WUHU21636XXSP,2013-07-16 20:56:00,
2013-07-16 17:01:00,93.7,73.9,30.28,NW,315,8.7,15.2,53,0.00,,,0.00,WUHU21636XXSP,2013-07-16 21:01:00,
2013-07-16 17:06:00,92.8,74.1,30.28,NW,315,2.6,16.7,55,0.00,,,0.00,WUHU21636XXSP,2013-07-16 21:06:00,
2013-07-16 17:11:00,93.4,73.0,30.29,WSW,247,4.6,16.7,53,0.00,,,0.00,WUHU21636XXSP,2013-07-16 21:11:00,
2013-07-16 17:16:00,93.6,74.3,30.29,West,270,0.0,14.9,54,0.00,,,0.00,WUHU21636XXSP,2013-07-16 21:16:00,
2013-07-16 17:21:00,93.7,73.4,30.29,NW,315,9.8,14.9,52,0.00,,,0.00,WUHU21636XXSP,2013-07-16 21:21:00,
2013-07-16 17:26:00,92.8,72.7,30.28,NW,315,9.3,16.3,54,0.00,,,0.00,WUHU21636XXSP,2013-07-16 21:26:00,
2013-07-16 17:31:00,92.1,72.9,30.29,SW,225,8.2,16.3,54,0.00,,,0.00,WUHU21636XXSP,2013-07-16 21:31:00,
2013-07-16 17:36:00,92.5,75.2,30.29,West,270,0.8,29.7,55,0.00,,,0.00,WUHU21636XXSP,2013-07-16 21:36:00,
2013-07-16 17:41:00,93.0,73.8,30.29,WSW,247,2.6,29.7,53,0.00,,,0.00,WUHU21636XXSP,2013-07-16 21:41:00,
2013-07-16 17:47:00,92.5,73.6,30.29,NW,315,4.4,10.7,55,0.00,,,0.00,WUHU21636XXSP,2013-07-16 21:47:00,
2013-07-16 17:51:00,92.5,74.3,30.28,WNW,292,4.0,24.1,56,0.00,,,0.00,WUHU21636XXSP,2013-07-16 21:51:00,
2013-07-16 17:56:00,92.7,74.5,30.28,WNW,292,0.8,24.1,56,0.00,,,0.00,WUHU21636XXSP,2013-07-16 21:56:00,
2013-07-16 18:01:00,92.5,74.3,30.29,WSW,247,2.9,11.8,56,0.00,,,0.00,WUHU21636XXSP,2013-07-16 22:01:00,
2013-07-16 18:06:00,92.1,74.5,30.28,SW,225,3.8,11.8,56,0.00,,,0.00,WUHU21636XXSP,2013-07-16 22:06:00,
2013-07-16 18:11:00,92.1,74.5,30.28,West,270,0.0,8.2,57,0.00,,,0.00,WUHU21636XXSP,2013-07-16 22:11:00,
2013-07-16 18:16:00,91.6,74.5,30.28,NW,315,0.0,3.8,58,0.00,,,0.00,WUHU21636XXSP,2013-07-16 22:16:00,
2013-07-16 18:21:00,90.3,74.5,30.28,NW,315,6.9,10.5,60,0.00,,,0.00,WUHU21636XXSP,2013-07-16 22:21:00,
2013-07-16 18:26:00,89.2,74.5,30.28,NW,315,5.1,10.5,62,0.00,,,0.00,WUHU21636XXSP,2013-07-16 22:26:00,
2013-07-16 18:31:00,88.2,73.4,30.28,WNW,292,6.2,9.8,62,0.00,,,0.00,WUHU21636XXSP,2013-07-16 22:31:00,
2013-07-16 18:36:00,87.4,74.1,30.28,NW,315,5.1,9.8,65,0.00,,,0.00,WUHU21636XXSP,2013-07-16 22:36:00,
2013-07-16 18:41:00,87.4,74.1,30.28,WNW,292,0.0,21.9,65,0.00,,,0.00,WUHU21636XXSP,2013-07-16 22:41:00,
2013-07-16 18:46:00,87.1,73.4,30.27,West,270,2.9,21.9,64,0.00,,,0.00,WUHU21636XXSP,2013-07-16 22:46:00,
2013-07-16 18:51:00,86.7,73.9,30.27,NW,315,0.0,9.8,66,0.00,,,0.00,WUHU21636XXSP,2013-07-16 22:51:00,
2013-07-16 18:56:00,86.4,73.6,30.27,NW,315,3.3,12.3,66,0.00,,,0.00,WUHU21636XXSP,2013-07-16 22:56:00,
2013-07-16 19:01:00,86.2,73.9,30.27,NNW,337,4.9,12.3,68,0.00,,,0.00,WUHU21636XXSP,2013-07-16 23:01:00,
2013-07-16 19:06:00,85.8,73.6,30.27,NW,315,2.9,8.0,68,0.00,,,0.00,WUHU21636XXSP,2013-07-16 23:06:00,
2013-07-16 19:11:00,85.8,73.6,30.27,NNW,337,0.0,8.0,68,0.00,,,0.00,WUHU21636XXSP,2013-07-16 23:11:00,
2013-07-16 19:16:00,85.8,73.0,30.27,WNW,292,2.9,5.1,66,0.00,,,0.00,WUHU21636XXSP,2013-07-16 23:16:00,
2013-07-16 19:21:00,85.6,73.8,30.27,WNW,292,0.0,5.1,68,0.00,,,0.00,WUHU21636XXSP,2013-07-16 23:21:00,
2013-07-16 19:26:00,85.8,73.9,30.27,WNW,292,0.0,2.9,67,0.00,,,0.00,WUHU21636XXSP,2013-07-16 23:26:00,
2013-07-16 19:31:00,85.6,74.5,30.27,NW,315,1.3,2.0,68,0.00,,,0.00,WUHU21636XXSP,2013-07-16 23:31:00,
2013-07-16 19:36:00,85.6,74.5,30.27,NW,315,2.4,2.4,68,0.00,,,0.00,WUHU21636XXSP,2013-07-16 23:36:00,
2013-07-16 19:41:00,85.5,74.1,30.26,North,0,0.0,2.4,69,0.00,,,0.00,WUHU21636XXSP,2013-07-16 23:41:00,
2013-07-16 19:46:00,85.3,73.4,30.26,NW,315,0.0,2.4,68,0.00,,,0.00,WUHU21636XXSP,2013-07-16 23:46:00,
2013-07-16 19:51:00,85.6,73.8,30.26,West,270,0.0,0.0,68,0.00,,,0.00,WUHU21636XXSP,2013-07-16 23:51:00,
2013-07-16 19:56:00,85.8,74.5,30.27,West,270,0.0,0.0,69,0.00,,,0.00,WUHU21636XXSP,2013-07-16 23:56:00,
2013-07-16 20:01:00,86.7,75.4,30.27,WNW,292,0.0,0.2,69,0.00,,,0.00,WUHU21636XXSP,2013-07-17 00:01:00,
2013-07-16 20:06:00,87.1,75.2,30.27,NNW,337,3.3,3.3,66,0.00,,,0.00,WUHU21636XXSP,2013-07-17 00:06:00,
2013-07-16 20:11:00,86.7,74.8,30.27,NNW,337,0.0,3.3,69,0.00,,,0.00,WUHU21636XXSP,2013-07-17 00:11:00,
2013-07-16 20:16:00,86.7,74.8,30.27,NNW,337,0.0,3.3,69,0.00,,,0.00,WUHU21636XXSP,2013-07-17 00:16:00,
2013-07-16 20:21:00,86.5,75.2,30.27,NNW,337,3.3,3.3,69,0.00,,,0.00,WUHU21636XXSP,2013-07-17 00:21:00,
2013-07-16 20:26:00,86.4,75.0,30.27,NNW,337,3.1,3.3,69,0.00,,,0.00,WUHU21636XXSP,2013-07-17 00:26:00,
2013-07-16 20:31:00,86.2,74.3,30.27,West,270,0.0,3.3,69,0.00,,,0.00,WUHU21636XXSP,2013-07-17 00:31:00,
2013-07-16 20:36:00,86.2,74.8,30.27,NW,315,0.0,4.6,69,0.00,,,0.00,WUHU21636XXSP,2013-07-17 00:36:00,
2013-07-16 20:41:00,86.2,74.8,30.27,NW,315,0.0,4.6,68,0.00,,,0.00,WUHU21636XXSP,2013-07-17 00:41:00,
2013-07-16 20:46:00,85.8,74.5,30.27,NW,315,0.0,0.0,71,0.00,,,0.00,WUHU21636XXSP,2013-07-17 00:46:00,
2013-07-16 20:51:00,85.8,74.5,30.27,NW,315,1.5,1.5,69,0.00,,,0.00,WUHU21636XXSP,2013-07-17 00:51:00,
2013-07-16 20:56:00,85.3,73.9,30.26,WNW,292,0.0,1.5,69,0.00,,,0.00,WUHU21636XXSP,2013-07-17 00:56:00,
2013-07-16 21:01:00,84.9,74.1,30.26,WNW,292,0.0,1.5,70,0.00,,,0.00,WUHU21636XXSP,2013-07-17 01:01:00,
2013-07-16 21:06:00,84.7,73.9,30.26,WNW,292,0.0,0.0,70,0.00,,,0.00,WUHU21636XXSP,2013-07-17 01:06:00,
2013-07-16 21:11:00,84.2,73.8,30.26,WNW,292,0.0,0.0,71,0.00,,,0.00,WUHU21636XXSP,2013-07-17 01:11:00,
2013-07-16 21:16:00,83.5,73.4,30.26,WNW,292,0.0,0.0,72,0.00,,,0.00,WUHU21636XXSP,2013-07-17 01:16:00,
2013-07-16 21:21:00,82.9,73.8,30.26,WNW,292,0.0,0.0,74,0.00,,,0.00,WUHU21636XXSP,2013-07-17 01:21:00,
2013-07-16 21:26:00,82.0,73.2,30.26,WNW,292,0.0,0.0,75,0.00,,,0.00,WUHU21636XXSP,2013-07-17 01:26:00,
2013-07-16 21:31:00,81.7,72.9,30.26,WNW,292,0.0,0.0,75,0.00,,,0.00,WUHU21636XXSP,2013-07-17 01:31:00,
2013-07-16 21:36:00,81.3,72.5,30.26,WNW,292,0.0,0.0,75,0.00,,,0.00,WUHU21636XXSP,2013-07-17 01:36:00,
2013-07-16 21:41:00,80.8,72.9,30.26,WNW,292,0.0,0.0,77,0.00,,,0.00,WUHU21636XXSP,2013-07-17 01:41:00,
2013-07-16 21:46:00,80.2,72.7,30.26,WNW,292,0.0,0.0,78,0.00,,,0.00,WUHU21636XXSP,2013-07-17 01:46:00,
2013-07-16 21:51:00,79.5,72.3,30.26,WNW,292,0.0,0.0,79,0.00,,,0.00,WUHU21636XXSP,2013-07-17 01:51:00,
2013-07-16 21:56:00,79.0,72.3,30.26,WNW,292,0.0,0.0,80,0.00,,,0.00,WUHU21636XXSP,2013-07-17 01:56:00,
2013-07-16 22:01:00,79.0,72.3,30.26,WNW,292,0.0,0.0,80,0.00,,,0.00,WUHU21636XXSP,2013-07-17 02:01:00,
2013-07-16 22:06:00,79.0,72.3,30.26,WNW,292,0.0,0.0,80,0.00,,,0.00,WUHU21636XXSP,2013-07-17 02:06:00,
2013-07-16 22:11:00,79.0,72.3,30.26,WNW,292,0.0,0.0,80,0.00,,,0.00,WUHU21636XXSP,2013-07-17 02:11:00,
2013-07-16 22:16:00,78.8,72.1,30.26,WSW,247,0.0,0.0,80,0.00,,,0.00,WUHU21636XXSP,2013-07-17 02:16:00,
2013-07-16 22:21:00,78.6,72.0,30.27,WSW,247,0.0,0.0,80,0.00,,,0.00,WUHU21636XXSP,2013-07-17 02:21:00,
2013-07-16 22:26:00,78.6,72.0,30.27,WSW,247,0.0,0.0,80,0.00,,,0.00,WUHU21636XXSP,2013-07-17 02:26:00,
2013-07-16 22:31:00,78.6,72.0,30.27,WSW,247,0.0,6.9,79,0.00,,,0.00,WUHU21636XXSP,2013-07-17 02:31:00,
2013-07-16 22:36:00,78.6,72.0,30.27,WSW,247,0.0,6.9,80,0.00,,,0.00,WUHU21636XXSP,2013-07-17 02:36:00,
2013-07-16 22:41:00,78.6,72.0,30.27,WSW,247,0.0,0.0,79,0.00,,,0.00,WUHU21636XXSP,2013-07-17 02:41:00,
2013-07-16 22:47:00,78.6,72.0,30.27,WSW,247,0.0,0.0,79,0.00,,,0.00,WUHU21636XXSP,2013-07-17 02:47:00,
2013-07-16 22:52:00,78.6,72.0,30.27,West,270,2.2,2.2,79,0.00,,,0.00,WUHU21636XXSP,2013-07-17 02:52:00,
2013-07-16 22:56:00,78.6,72.0,30.27,WSW,247,2.2,2.2,78,0.00,,,0.00,WUHU21636XXSP,2013-07-17 02:56:00,
2013-07-16 23:01:00,78.6,72.0,30.27,West,270,2.2,2.2,78,0.00,,,0.00,WUHU21636XXSP,2013-07-17 03:01:00,
2013-07-16 23:06:00,78.6,71.1,30.27,SSW,202,4.4,4.4,78,0.00,,,0.00,WUHU21636XXSP,2013-07-17 03:06:00,
2013-07-16 23:11:00,78.6,71.3,30.27,WSW,247,0.0,4.4,78,0.00,,,0.00,WUHU21636XXSP,2013-07-17 03:11:00,
2013-07-16 23:17:00,78.6,71.1,30.27,WSW,247,0.0,2.2,77,0.00,,,0.00,WUHU21636XXSP,2013-07-17 03:17:00,
2013-07-16 23:22:00,78.6,71.1,30.27,West,270,0.0,0.0,77,0.00,,,0.00,WUHU21636XXSP,2013-07-17 03:22:00,
2013-07-16 23:27:00,78.6,71.1,30.27,WSW,247,0.4,0.4,77,0.00,,,0.00,WUHU21636XXSP,2013-07-17 03:27:00,
2013-07-16 23:32:00,78.6,71.1,30.27,SW,225,2.4,2.4,77,0.00,,,0.00,WUHU21636XXSP,2013-07-17 03:32:00,
2013-07-16 23:37:00,78.6,71.1,30.27,West,270,0.0,2.4,77,0.00,,,0.00,WUHU21636XXSP,2013-07-17 03:37:00,
2013-07-16 23:42:00,78.6,71.1,30.27,SW,225,0.0,2.4,77,0.00,,,0.00,WUHU21636XXSP,2013-07-17 03:42:00,
2013-07-16 23:47:00,78.4,70.5,30.27,WSW,247,1.3,1.3,78,0.00,,,0.00,WUHU21636XXSP,2013-07-17 03:47:00,
2013-07-16 23:52:00,78.3,70.7,30.27,WNW,292,0.0,1.3,78,0.00,,,0.00,WUHU21636XXSP,2013-07-17 03:52:00,
2013-07-16 23:57:00,78.1,70.5,30.28,West,270,0.0,1.3,78,0.00,,,0.00,WUHU21636XXSP,2013-07-17 03:57:00,